Terug naar catalogus

STARLINK-2417

ActiefCommunicatieVLEO
NORAD 48096·PAYLOAD·🇺🇸 United States

Gelanceerd Apr 7, 2021 vanaf Cape Canaveral Space Force Station

Loading…

Volgende Passages (komende 24 uur)

TLE

VersSource: CelesTrak SupGP

Epoch: Sep 14, 2026, 20:32 UTC

1 48096C 21027E   26257.85604167 -.00001272  00000+0 -40904-4 0  2579
2 48096  53.1590   5.2731 0001086  83.2114 240.5103 15.31709490    19

Volg STARLINK-2417 in realtime met AllMySat

Download on the App Store